Location: Crescent
(42.8242°N, 73.7329°W)
Time: 05:55:17
(UTC+00:00)

Transit 4A - Pass Details

Date: 24 February 2026
Orbit: 864 x 977 km, 66.8° (Epoch: 5 March)

Event Time Altitude Azimuth Distance (km) Brightness Sun altitude
Rises 17:12:02 0° 319° (NW) 3,630 10.6 37.9°
Reaches altitude 10° 17:14:54 10° 308° (NW) 2,696 10.1 37.9°
Maximum altitude 17:20:08 28° 252° (WSW) 1,725 9.9 37.8°
Drops below altitude 10° 17:25:24 10° 196° (SSW) 2,714 11.6 37.8°
Sets 17:28:19 0° 185° (S) 3,660 12.0 37.7°
